Corning, AR

10:10 PM CST on November 19, 2019 (GMT -0600)
Corning

Weather History for K4M9 - October, 2019

Change the Weather History Date:

Monday, October 21, 2019

  Actual Average (WUND) Record (WUND)
Temperature  
Mean Temperature 62 °F -  
Max Temperature 71 °F - - (-1)
Min Temperature 53 °F - - (-1)
Degree Days  
Heating Degree Days 3    
Growing Degree Days 12 (Base 50)    
Moisture  
Dew Point 60 °F    
Average Humidity 85    
Maximum Humidity 100    
Minimum Humidity 57    
Precipitation  
Precipitation 0.00 in - - ()
Sea Level Pressure  
Sea Level Pressure 29.71 in    
Wind  
Wind Speed 13 mph ()    
Max Wind Speed 24 mph    
Max Gust Speed 40 mph    
Visibility 9.1 miles    
Events Thunderstorm    
Averages and records for this station are not official NWS values.
T = Trace of Precipitation, MM = Missing Value Source: Averaged Metar Reports

Daily Weather History Graph

Daily Weather History Graph

Search for Another Location

Airport or City:

Astronomy

Oct. 21, 2019 Rise Set
Actual Time 7:14 AM CDT 6:18 PM CDT
Civil Twilight 6:48 AM CDT 6:45 PM CDT
Nautical Twilight 6:18 AM CDT 7:15 PM CDT
Astronomical Twilight 5:48 AM CDT 7:44 PM CDT
Moon No Moon Rise 2:27 PM CDT (10/21)
Length of Visible Light 11h 56m
Length of Day
11h 03m
Waning Gibbous, 48% of the Moon is Illuminated
Oct 21
Waning Gibbous
Oct 27
New
Nov 4
First Quarter
Nov 12
Full
Nov 19
Last Quarter

Hourly Weather History & Observations

Time (CDT) Temp. Dew Point Humidity Pressure Visibility Wind Dir Wind Speed Gust Speed Precip Events Conditions
12:15 AM 66.2 °F 66.2 °F 100% 29.69 in 10.0 mi SE 11.5 mph 18.4 mph N/A   Mostly Cloudy
12:35 AM 68.0 °F 66.2 °F 94% 29.69 in 10.0 mi SE 12.7 mph - N/A   Overcast
12:55 AM 68.0 °F 66.2 °F 94% 29.69 in 10.0 mi SE 15.0 mph - N/A   Overcast
1:15 AM 68.0 °F 66.2 °F 94% 29.65 in 10.0 mi SE 18.4 mph 24.2 mph N/A   Overcast
1:35 AM 68.0 °F 66.2 °F 94% 29.65 in 9.0 mi SSE 16.1 mph 24.2 mph N/A   Mostly Cloudy
1:55 AM 68.0 °F 66.2 °F 94% 29.64 in 7.0 mi SE 18.4 mph - N/A   Scattered Clouds
2:15 AM 68.0 °F 68.0 °F 100% 29.63 in 8.0 mi SSE 16.1 mph 24.2 mph N/A   Scattered Clouds
2:35 AM 68.0 °F 68.0 °F 100% 29.62 in 8.0 mi SSE 17.3 mph 25.3 mph N/A   Mostly Cloudy
2:55 AM 69.8 °F 69.8 °F 100% 29.62 in 6.0 mi SSE 17.3 mph 27.6 mph N/A Thunderstorm Thunderstorm
3:15 AM 69.8 °F 69.8 °F 100% 29.62 in 8.0 mi SSE 16.1 mph 26.5 mph N/A Thunderstorm Overcast
3:35 AM 69.8 °F 69.8 °F 100% 29.61 in 6.0 mi South 13.8 mph - N/A Thunderstorm Overcast
3:55 AM 71.6 °F 71.6 °F 100% 29.60 in 9.0 mi South 10.4 mph 17.3 mph N/A   Overcast
4:15 AM 71.6 °F 71.6 °F 100% 29.65 in 2.5 mi WSW 24.2 mph 40.3 mph N/A Thunderstorm Overcast
4:35 AM 66.2 °F 66.2 °F 100% 29.64 in 3.0 mi NW 15.0 mph 25.3 mph N/A   Overcast
4:55 AM 64.4 °F 64.4 °F 100% 29.63 in 4.0 mi NW 5.8 mph 13.8 mph N/A   Overcast
5:15 AM - - N/A% 29.65 in 10.0 mi SSW 6.9 mph - N/A   Mostly Cloudy
5:35 AM 62.6 °F 62.6 °F 100% 29.68 in 10.0 mi SW 9.2 mph - N/A   Overcast
5:55 AM 62.6 °F 62.6 °F 100% 29.67 in 4.0 mi South 4.6 mph - N/A Thunderstorm Mostly Cloudy
6:15 AM 62.6 °F 62.6 °F 100% 29.66 in 3.0 mi South 6.9 mph - N/A Thunderstorm Thunderstorm
6:35 AM 62.6 °F 62.6 °F 100% 29.63 in 4.0 mi SE 9.2 mph - N/A   Overcast
6:55 AM 62.6 °F 62.6 °F 100% 29.61 in 10.0 mi SE 11.5 mph - N/A Thunderstorm Overcast
7:15 AM 62.6 °F 62.6 °F 100% 29.65 in 9.0 mi South 6.9 mph 15.0 mph N/A   Mostly Cloudy
7:35 AM 62.6 °F 62.6 °F 100% 29.57 in 6.0 mi ESE 16.1 mph - N/A   Overcast
7:55 AM 62.6 °F 62.6 °F 100% 29.65 in 10.0 mi WSW 12.7 mph - N/A   Scattered Clouds
8:15 AM 62.6 °F 62.6 °F 100% 29.66 in 10.0 mi SSW 12.7 mph - N/A   Clear
8:35 AM 62.6 °F 62.6 °F 100% 29.67 in 10.0 mi SSW 15.0 mph - N/A   Scattered Clouds
8:55 AM 64.4 °F 64.4 °F 100% 29.67 in 10.0 mi SSW 18.4 mph 24.2 mph N/A   Mostly Cloudy
9:15 AM 64.4 °F 64.4 °F 100% 29.66 in 10.0 mi South 15.0 mph 23.0 mph N/A   Mostly Cloudy
9:35 AM 64.4 °F 64.4 °F 100% 29.67 in 10.0 mi SSW 16.1 mph - N/A   Overcast
10:15 AM 66.2 °F 66.2 °F 100% 29.67 in 10.0 mi SSW 18.4 mph 27.6 mph N/A   Overcast
10:35 AM 66.2 °F 66.2 °F 100% 29.68 in 10.0 mi SSW 20.7 mph - N/A   Overcast
10:55 AM 66.2 °F 66.2 °F 100% 29.68 in 10.0 mi SSW 20.7 mph - N/A   Overcast
11:15 AM 66.2 °F 66.2 °F 100% 29.69 in 10.0 mi SSW 19.6 mph 27.6 mph N/A   Mostly Cloudy
11:35 AM 66.2 °F 66.2 °F 100% 29.71 in 10.0 mi SSW 17.3 mph 23.0 mph N/A   Mostly Cloudy
11:55 AM 68.0 °F 68.0 °F 100% 29.71 in 10.0 mi SW 17.3 mph 24.2 mph N/A   Unknown
12:35 PM 68.0 °F 66.2 °F 94% 29.71 in 10.0 mi SW 15.0 mph 20.7 mph N/A   Mostly Cloudy
1:15 PM 68.0 °F 60.8 °F 78% 29.71 in 10.0 mi West 16.1 mph - N/A   Mostly Cloudy
1:35 PM 68.0 °F 60.8 °F 78% 29.70 in 10.0 mi West 12.7 mph 18.4 mph N/A   Scattered Clouds
1:55 PM 68.0 °F 60.8 °F 78% 29.70 in - WSW 11.5 mph - N/A   Clear
2:15 PM 69.8 °F 60.8 °F 73% 29.70 in 10.0 mi SW 13.8 mph - N/A   Clear
2:35 PM 71.6 °F 62.6 °F 73% 29.69 in 10.0 mi WSW 15.0 mph 20.7 mph N/A   Partly Cloudy
2:55 PM 69.8 °F 60.8 °F 73% 29.70 in 10.0 mi SW 17.3 mph - N/A   Scattered Clouds
3:15 PM 71.6 °F 60.8 °F 69% 29.70 in 10.0 mi SW 18.4 mph 24.2 mph N/A   Clear
3:35 PM 71.6 °F 59.0 °F 64% 29.71 in 10.0 mi WSW 16.1 mph 25.3 mph N/A   Clear
3:55 PM 71.6 °F 59.0 °F 64% 29.71 in 10.0 mi WSW 15.0 mph 23.0 mph N/A   Clear
4:15 PM 71.6 °F 57.2 °F 60% 29.72 in 10.0 mi WSW 15.0 mph - N/A   Clear
4:35 PM 69.8 °F 57.2 °F 64% 29.72 in 10.0 mi West 12.7 mph - N/A   Clear
4:55 PM 71.6 °F 55.4 °F 57% 29.72 in 10.0 mi WSW 12.7 mph - N/A   Clear
5:15 PM 69.8 °F 57.2 °F 64% 29.72 in 10.0 mi WSW 9.2 mph - N/A   Clear
5:35 PM 69.8 °F 55.4 °F 60% 29.73 in 10.0 mi WSW 11.5 mph - N/A   Clear
5:55 PM 68.0 °F 53.6 °F 60% 29.73 in 10.0 mi WSW 9.2 mph - N/A   Clear
6:15 PM 66.2 °F 55.4 °F 68% 29.74 in 10.0 mi WSW 9.2 mph - N/A   Clear
6:35 PM 62.6 °F 53.6 °F 72% 29.75 in 10.0 mi WSW 6.9 mph - N/A   Clear
6:55 PM 60.8 °F 51.8 °F 72% 29.75 in 10.0 mi WSW 6.9 mph - N/A   Clear
7:15 PM 60.8 °F 50.0 °F 68% 29.77 in 10.0 mi WSW 5.8 mph - N/A   Clear
7:35 PM 59.0 °F 50.0 °F 72% 29.78 in 10.0 mi WSW 5.8 mph - N/A   Clear
7:55 PM 59.0 °F 50.0 °F 72% 29.79 in 10.0 mi WSW 8.1 mph - N/A   Clear
8:15 PM 57.2 °F 50.0 °F 77% 29.81 in 10.0 mi WSW 10.4 mph - N/A   Clear
8:35 PM 57.2 °F 46.4 °F 67% 29.82 in 10.0 mi WSW 10.4 mph - N/A   Clear
8:55 PM 57.2 °F 46.4 °F 67% 29.84 in 10.0 mi West 8.1 mph - N/A   Clear
9:15 PM 55.4 °F 46.4 °F 72% 29.85 in 10.0 mi West 9.2 mph - N/A   Clear
9:55 PM 57.2 °F 44.6 °F 63% 29.88 in 10.0 mi WSW 11.5 mph - N/A   Clear
10:15 PM 55.4 °F 44.6 °F 67% 29.88 in 10.0 mi WSW 11.5 mph - N/A   Clear
10:35 PM 55.4 °F 46.4 °F 72% 29.89 in 10.0 mi SW 11.5 mph - N/A   Clear
10:55 PM 55.4 °F 46.4 °F 72% 29.88 in 10.0 mi SW 10.4 mph - N/A   Clear
11:15 PM 53.6 °F 46.4 °F 77% 29.88 in 10.0 mi SW 10.4 mph - N/A   Clear
11:35 PM 53.6 °F 46.4 °F 77% 29.87 in 10.0 mi SW 9.2 mph - N/A   Clear
11:55 PM 53.6 °F 48.2 °F 82% 29.87 in 10.0 mi SW 9.2 mph - N/A   Clear